Time,TemperatureF,DewpointF,PressureIn,WindDirection,WindDirectionDegrees,WindSpeedMPH,WindSpeedGustMPH,Humidity,HourlyPrecipIn,Conditions,Clouds,dailyrainin,SolarRadiationWatts/m^2,SoftwareType,DateUTC
2013-05-26 00:03:00,50.7,46.7,29.74,NW,305,0.0,0.0,86,0.00,RA,,0.00,0.0,WeatherDisplay:10.37,2013-05-25 22:03:00,
2013-05-26 00:08:00,50.7,46.7,29.74,NW,305,0.0,0.0,86,0.00,RA,,0.00,0.0,WeatherDisplay:10.37,2013-05-25 22:08:00,
2013-05-26 00:13:00,50.6,46.6,29.74,NW,305,0.0,0.0,86,0.00,CLR,,0.00,0.0,WeatherDisplay:10.37,2013-05-25 22:13:00,
2013-05-26 00:18:00,50.6,46.6,29.74,NW,305,0.0,0.0,86,0.00,CLR,,0.00,0.0,WeatherDisplay:10.37,2013-05-25 22:18:00,
2013-05-26 00:23:00,50.6,46.6,29.74,NW,305,0.0,1.2,86,0.00,CLR,,0.00,0.0,WeatherDisplay:10.37,2013-05-25 22:23:00,
2013-05-26 00:28:00,50.6,46.6,29.74,NW,305,0.0,0.0,86,0.00,CLR,,0.00,0.0,WeatherDisplay:10.37,2013-05-25 22:28:00,
2013-05-26 00:33:00,50.6,46.6,29.74,NW,305,0.0,0.0,86,0.00,CLR,,0.00,0.0,WeatherDisplay:10.37,2013-05-25 22:33:00,
2013-05-26 00:38:00,50.7,46.7,29.74,NW,305,0.0,0.0,86,0.00,CLR,,0.00,0.0,WeatherDisplay:10.37,2013-05-25 22:38:00,
2013-05-26 00:44:00,50.9,46.9,29.74,NW,305,0.0,1.2,86,0.00,CLR,,0.00,0.0,WeatherDisplay:10.37,2013-05-25 22:44:00,
2013-05-26 00:49:00,51.0,46.6,29.74,NW,305,0.0,0.0,85,0.00,CLR,,0.00,0.0,WeatherDisplay:10.37,2013-05-25 22:49:00,
2013-05-26 00:54:00,51.1,46.7,29.73,NW,305,0.0,0.0,85,0.00,CLR,,0.00,0.0,WeatherDisplay:10.37,2013-05-25 22:54:00,
2013-05-26 00:59:00,51.3,46.9,29.73,NW,305,0.0,0.0,85,0.00,CLR,,0.00,0.0,WeatherDisplay:10.37,2013-05-25 22:59:00,
2013-05-26 01:04:00,51.4,46.7,29.73,NW,305,0.0,0.0,84,0.00,CLR,,0.00,0.0,WeatherDisplay:10.37,2013-05-25 23:04:00,
2013-05-26 01:09:00,51.5,46.8,29.73,NW,305,0.1,1.2,84,0.00,CLR,,0.00,0.0,WeatherDisplay:10.37,2013-05-25 23:09:00,
2013-05-26 01:14:00,51.5,46.5,29.73,NW,305,0.4,1.2,83,0.00,CLR,,0.00,0.0,WeatherDisplay:10.37,2013-05-25 23:14:00,
2013-05-26 01:19:00,51.6,46.6,29.73,NW,305,0.0,0.0,83,0.00,CLR,,0.00,0.0,WeatherDisplay:10.37,2013-05-25 23:19:00,
2013-05-26 01:24:00,51.6,46.6,29.73,NW,305,0.0,0.0,83,0.00,CLR,,0.00,0.0,WeatherDisplay:10.37,2013-05-25 23:24:00,
2013-05-26 01:29:00,51.7,46.7,29.73,NW,305,0.0,0.0,83,0.00,CLR,,0.00,0.0,WeatherDisplay:10.37,2013-05-25 23:29:00,
2013-05-26 01:34:00,51.7,46.7,29.73,NW,305,0.0,0.0,83,0.00,CLR,,0.00,0.0,WeatherDisplay:10.37,2013-05-25 23:34:00,
2013-05-26 01:39:00,51.7,46.7,29.73,NW,305,0.0,0.0,83,0.00,CLR,,0.00,0.0,WeatherDisplay:10.37,2013-05-25 23:39:00,
2013-05-26 01:44:00,51.6,46.6,29.73,NW,305,0.0,0.0,83,0.00,CLR,,0.00,0.0,WeatherDisplay:10.37,2013-05-25 23:44:00,
2013-05-26 01:49:00,51.6,46.6,29.73,NW,305,0.0,0.0,83,0.00,CLR,,0.00,0.0,WeatherDisplay:10.37,2013-05-25 23:49:00,
2013-05-26 01:54:00,51.5,46.5,29.73,NW,305,0.0,0.0,83,0.00,CLR,,0.00,0.0,WeatherDisplay:10.37,2013-05-25 23:54:00,
2013-05-26 01:59:00,51.4,46.4,29.73,NW,305,0.0,0.0,83,0.00,CLR,,0.00,0.0,WeatherDisplay:10.37,2013-05-25 23:59:00,
2013-05-26 02:04:00,51.4,46.4,29.72,NW,305,0.0,0.0,83,0.00,CLR,,0.00,0.0,WeatherDisplay:10.37,2013-05-26 00:04:00,
2013-05-26 02:09:00,51.3,46.3,29.72,NW,305,0.1,1.2,83,0.00,CLR,,0.00,0.0,WeatherDisplay:10.37,2013-05-26 00:09:00,
2013-05-26 02:14:00,51.3,46.3,29.72,NW,305,0.0,0.0,83,0.00,CLR,,0.00,0.0,WeatherDisplay:10.37,2013-05-26 00:14:00,
2013-05-26 02:19:00,51.3,46.3,29.72,NW,305,0.0,0.0,83,0.00,CLR,,0.00,0.0,WeatherDisplay:10.37,2013-05-26 00:19:00,
2013-05-26 02:24:00,51.3,46.3,29.72,NW,305,0.0,0.0,83,0.00,CLR,,0.00,0.0,WeatherDisplay:10.37,2013-05-26 00:24:00,
2013-05-26 02:29:00,51.3,46.3,29.72,NW,305,0.0,0.0,83,0.00,CLR,,0.00,0.0,WeatherDisplay:10.37,2013-05-26 00:29:00,
2013-05-26 02:34:00,51.3,46.6,29.72,NW,305,0.0,0.0,84,0.00,CLR,,0.00,0.0,WeatherDisplay:10.37,2013-05-26 00:34:00,
2013-05-26 02:39:00,51.3,46.6,29.72,NW,305,0.0,0.0,84,0.00,CLR,,0.00,0.0,WeatherDisplay:10.37,2013-05-26 00:39:00,
2013-05-26 02:44:00,51.3,46.6,29.71,NW,305,0.0,0.0,84,0.00,CLR,,0.00,0.0,WeatherDisplay:10.37,2013-05-26 00:44:00,
2013-05-26 02:49:00,51.3,46.6,29.71,NW,305,0.0,0.0,84,0.00,CLR,,0.00,0.0,WeatherDisplay:10.37,2013-05-26 00:49:00,
2013-05-26 02:54:00,51.2,46.5,29.71,NW,305,0.0,0.0,84,0.00,CLR,,0.00,0.0,WeatherDisplay:10.37,2013-05-26 00:54:00,
2013-05-26 02:59:00,51.2,46.5,29.72,NW,305,0.0,0.0,84,0.00,CLR,,0.00,0.0,WeatherDisplay:10.37,2013-05-26 00:59:00,
2013-05-26 03:04:00,51.1,46.4,29.72,NW,305,0.0,0.0,84,0.00,CLR,,0.00,0.0,WeatherDisplay:10.37,2013-05-26 01:04:00,
2013-05-26 03:09:00,51.1,46.4,29.72,NW,305,0.0,0.0,84,0.00,CLR,,0.00,0.0,WeatherDisplay:10.37,2013-05-26 01:09:00,
2013-05-26 03:14:00,51.0,46.3,29.71,NW,305,0.0,0.0,84,0.00,CLR,,0.00,0.0,WeatherDisplay:10.37,2013-05-26 01:14:00,
2013-05-26 03:19:00,51.0,46.3,29.71,NW,305,0.0,0.0,84,0.00,CLR,,0.00,0.0,WeatherDisplay:10.37,2013-05-26 01:19:00,
2013-05-26 03:24:00,50.9,46.2,29.71,NW,305,0.0,0.0,84,0.00,CLR,,0.00,0.0,WeatherDisplay:10.37,2013-05-26 01:24:00,
2013-05-26 03:29:00,50.9,46.2,29.71,NW,305,0.0,0.0,84,0.00,CLR,,0.00,0.0,WeatherDisplay:10.37,2013-05-26 01:29:00,
2013-05-26 03:34:00,50.8,46.1,29.71,NW,305,0.0,0.0,84,0.00,CLR,,0.00,0.0,WeatherDisplay:10.37,2013-05-26 01:34:00,
2013-05-26 03:39:00,50.7,46.0,29.71,NW,305,0.0,0.0,84,0.00,CLR,,0.00,0.0,WeatherDisplay:10.37,2013-05-26 01:39:00,
2013-05-26 03:44:00,50.6,45.9,29.70,NW,305,0.0,0.0,84,0.00,CLR,,0.00,0.0,WeatherDisplay:10.37,2013-05-26 01:44:00,
2013-05-26 03:49:00,50.5,45.8,29.70,NW,305,0.0,0.0,84,0.00,CLR,,0.00,0.0,WeatherDisplay:10.37,2013-05-26 01:49:00,
2013-05-26 03:54:00,50.4,45.7,29.70,NW,305,0.0,0.0,84,0.00,CLR,,0.00,0.0,WeatherDisplay:10.37,2013-05-26 01:54:00,
2013-05-26 03:59:00,50.2,45.6,29.70,NW,305,0.0,0.0,84,0.00,CLR,,0.00,0.0,WeatherDisplay:10.37,2013-05-26 01:59:00,
2013-05-26 04:04:00,50.1,45.5,29.70,NW,305,0.0,0.0,84,0.00,CLR,,0.00,0.0,WeatherDisplay:10.37,2013-05-26 02:04:00,
2013-05-26 04:09:00,50.0,45.7,29.70,NW,305,0.0,0.0,85,0.00,CLR,,0.00,0.0,WeatherDisplay:10.37,2013-05-26 02:09:00,
2013-05-26 04:14:00,49.9,45.6,29.70,NW,305,0.0,0.0,85,0.00,CLR,,0.00,0.0,WeatherDisplay:10.37,2013-05-26 02:14:00,
2013-05-26 04:19:00,49.8,45.5,29.70,NW,305,0.0,0.0,85,0.00,CLR,,0.00,0.0,WeatherDisplay:10.37,2013-05-26 02:19:00,
2013-05-26 04:24:00,49.8,45.5,29.70,NW,305,0.0,0.0,85,0.00,CLR,,0.00,0.0,WeatherDisplay:10.37,2013-05-26 02:24:00,
2013-05-26 04:29:00,49.8,45.5,29.70,NW,305,0.0,0.0,85,0.00,CLR,,0.00,0.0,WeatherDisplay:10.37,2013-05-26 02:29:00,
2013-05-26 04:34:00,49.7,45.7,29.70,NW,305,0.0,0.0,86,0.00,CLR,,0.00,0.0,WeatherDisplay:10.37,2013-05-26 02:34:00,
2013-05-26 04:39:00,49.7,45.7,29.70,NW,305,0.0,0.0,86,0.00,CLR,,0.00,0.0,WeatherDisplay:10.37,2013-05-26 02:39:00,
2013-05-26 04:44:00,49.7,45.7,29.70,NW,305,0.0,0.0,86,0.00,CLR,,0.00,0.0,WeatherDisplay:10.37,2013-05-26 02:44:00,
2013-05-26 04:49:00,49.7,45.7,29.70,NW,305,0.0,0.0,86,0.00,CLR,,0.00,0.0,WeatherDisplay:10.37,2013-05-26 02:49:00,
2013-05-26 04:54:00,49.7,46.0,29.70,NW,305,0.0,0.0,87,0.00,CLR,,0.00,0.0,WeatherDisplay:10.37,2013-05-26 02:54:00,
2013-05-26 04:59:00,49.7,46.0,29.70,NW,305,0.0,0.0,87,0.00,CLR,,0.00,0.0,WeatherDisplay:10.37,2013-05-26 02:59:00,
2013-05-26 05:04:00,49.8,46.1,29.70,NW,305,0.0,0.0,87,0.00,CLR,,0.00,0.0,WeatherDisplay:10.37,2013-05-26 03:04:00,
2013-05-26 05:09:00,49.8,46.1,29.70,NW,305,0.0,0.0,87,0.00,CLR,,0.00,0.0,WeatherDisplay:10.37,2013-05-26 03:09:00,
2013-05-26 05:14:00,49.8,45.8,29.70,NW,305,0.0,1.2,86,0.00,CLR,,0.00,0.0,WeatherDisplay:10.37,2013-05-26 03:14:00,
2013-05-26 05:19:00,49.8,45.8,29.70,NW,305,0.0,0.0,86,0.00,CLR,,0.00,5.0,WeatherDisplay:10.37,2013-05-26 03:19:00,
2013-05-26 05:24:00,49.8,45.8,29.70,NW,305,0.0,0.0,86,0.00,CLR,,0.00,7.0,WeatherDisplay:10.37,2013-05-26 03:24:00,
2013-05-26 05:29:00,49.9,45.9,29.70,NW,305,0.0,0.0,86,0.00,CLR,,0.00,11.0,WeatherDisplay:10.37,2013-05-26 03:29:00,
2013-05-26 05:34:00,50.0,46.3,29.70,NW,305,0.0,0.0,87,0.00,CLR,,0.00,9.0,WeatherDisplay:10.37,2013-05-26 03:34:00,
2013-05-26 05:39:00,50.0,46.3,29.70,NW,305,0.0,1.2,87,0.00,CLR,,0.00,12.0,WeatherDisplay:10.37,2013-05-26 03:39:00,
2013-05-26 05:44:00,50.0,46.0,29.70,NW,305,0.0,3.5,86,0.00,CLR,,0.00,11.0,WeatherDisplay:10.37,2013-05-26 03:44:00,
2013-05-26 05:49:00,50.0,46.0,29.70,NW,305,0.2,1.2,86,0.00,CLR,,0.00,12.0,WeatherDisplay:10.37,2013-05-26 03:49:00,
2013-05-26 05:54:00,50.1,46.1,29.70,NW,305,0.2,2.3,86,0.00,BKN,,0.00,14.0,WeatherDisplay:10.37,2013-05-26 03:54:00,
2013-05-26 05:59:00,50.1,46.1,29.70,NW,305,0.1,1.2,86,0.00,BKN,,0.00,14.0,WeatherDisplay:10.37,2013-05-26 03:59:00,
2013-05-26 06:01:00,50.1,46.1,29.70,NW,305,0.2,1.2,86,0.00,BKN,,0.00,16.0,WeatherDisplay:10.37,2013-05-26 04:01:00,
2013-05-26 06:02:00,50.1,46.1,29.70,NW,305,0.3,1.2,86,0.00,BKN,,0.00,16.0,WeatherDisplay:10.37,2013-05-26 04:02:00,
2013-05-26 06:04:00,50.1,46.1,29.70,NW,305,0.0,1.2,86,0.00,BKN,,0.00,16.0,WeatherDisplay:10.37,2013-05-26 04:04:00,
2013-05-26 06:09:00,50.1,46.1,29.70,NW,305,0.0,1.2,86,0.00,BKN,,0.00,18.0,WeatherDisplay:10.37,2013-05-26 04:09:00,
2013-05-26 06:12:00,50.1,46.1,29.70,NW,305,0.0,1.2,86,0.00,BKN,,0.00,19.0,WeatherDisplay:10.37,2013-05-26 04:12:00,
2013-05-26 06:17:00,50.1,46.1,29.70,NW,305,0.0,0.0,86,0.00,BKN,,0.00,25.0,WeatherDisplay:10.37,2013-05-26 04:17:00,
2013-05-26 06:22:00,50.2,46.2,29.70,NW,305,0.2,2.3,86,0.00,BKN,,0.00,28.0,WeatherDisplay:10.37,2013-05-26 04:22:00,
2013-05-26 06:27:00,50.2,46.5,29.70,NW,305,0.2,1.2,87,0.00,BKN,,0.00,33.0,WeatherDisplay:10.37,2013-05-26 04:27:00,
2013-05-26 06:32:00,50.2,46.5,29.70,NW,305,0.4,1.2,87,0.00,BKN,,0.00,37.0,WeatherDisplay:10.37,2013-05-26 04:32:00,
2013-05-26 06:37:00,50.2,46.5,29.70,NW,305,0.0,0.0,87,0.00,BKN,,0.01,37.0,WeatherDisplay:10.37,2013-05-26 04:37:00,
2013-05-26 06:42:00,50.3,46.6,29.71,NW,305,0.2,1.2,87,0.01,RA,,0.01,37.0,WeatherDisplay:10.37,2013-05-26 04:42:00,
2013-05-26 06:47:00,50.3,46.9,29.70,NW,305,0.1,1.2,88,0.01,RA,,0.01,33.0,WeatherDisplay:10.37,2013-05-26 04:47:00,
2013-05-26 06:52:00,50.3,46.9,29.71,NW,305,0.2,1.2,88,0.01,BKN,,0.01,26.0,WeatherDisplay:10.37,2013-05-26 04:52:00,
2013-05-26 06:57:00,50.3,46.9,29.71,NW,305,0.0,1.2,88,0.01,BKN,,0.01,25.0,WeatherDisplay:10.37,2013-05-26 04:57:00,
2013-05-26 07:02:00,50.3,46.9,29.71,NW,305,0.1,1.2,88,0.01,BKN,,0.01,26.0,WeatherDisplay:10.37,2013-05-26 05:02:00,
2013-05-26 07:07:00,50.3,46.9,29.71,NW,305,0.0,0.0,88,0.01,BKN,,0.01,26.0,WeatherDisplay:10.37,2013-05-26 05:07:00,
2013-05-26 07:12:00,50.3,46.9,29.71,NW,305,0.0,0.0,88,0.01,BKN,,0.01,28.0,WeatherDisplay:10.37,2013-05-26 05:12:00,
2013-05-26 07:17:00,50.3,46.9,29.71,NW,305,0.0,0.0,88,0.01,BKN,,0.01,30.0,WeatherDisplay:10.37,2013-05-26 05:17:00,
2013-05-26 07:22:00,50.3,47.2,29.71,NW,305,0.0,1.2,89,0.01,BKN,,0.01,35.0,WeatherDisplay:10.37,2013-05-26 05:22:00,
2013-05-26 07:27:00,50.3,47.2,29.71,NW,305,0.0,0.0,89,0.01,BKN,,0.01,42.0,WeatherDisplay:10.37,2013-05-26 05:27:00,
2013-05-26 07:32:00,50.3,47.2,29.71,NW,305,0.1,1.2,89,0.01,BKN,,0.01,51.0,WeatherDisplay:10.37,2013-05-26 05:32:00,
2013-05-26 07:37:00,50.4,47.3,29.71,NW,305,0.0,1.2,89,0.01,BKN,,0.01,58.0,WeatherDisplay:10.37,2013-05-26 05:37:00,
2013-05-26 07:42:00,50.4,47.3,29.71,NW,305,0.3,2.3,89,0.00,BKN,,0.01,62.0,WeatherDisplay:10.37,2013-05-26 05:42:00,
2013-05-26 07:47:00,50.4,47.3,29.71,NW,305,1.0,3.5,89,0.00,BKN,,0.01,70.0,WeatherDisplay:10.37,2013-05-26 05:47:00,
2013-05-26 07:52:00,50.4,47.3,29.72,North,360,0.0,0.0,89,0.00,BKN,,0.01,77.0,WeatherDisplay:10.37,2013-05-26 05:52:00,
2013-05-26 07:57:00,50.5,47.4,29.72,NW,305,0.1,1.2,89,0.01,RA,,0.02,76.0,WeatherDisplay:10.37,2013-05-26 05:57:00,
2013-05-26 08:02:00,50.5,47.7,29.72,NW,305,0.0,0.0,90,0.01,RA,,0.02,74.0,WeatherDisplay:10.37,2013-05-26 06:02:00,
2013-05-26 08:07:00,50.6,47.8,29.72,NW,305,0.6,3.5,90,0.01,BKN,,0.02,77.0,WeatherDisplay:10.37,2013-05-26 06:07:00,
2013-05-26 08:12:00,50.6,47.8,29.72,North,360,0.0,1.2,90,0.01,BKN,,0.02,84.0,WeatherDisplay:10.37,2013-05-26 06:12:00,
2013-05-26 08:17:00,50.7,47.9,29.72,NW,305,1.5,3.5,90,0.01,BKN,,0.02,98.0,WeatherDisplay:10.37,2013-05-26 06:17:00,
2013-05-26 08:22:00,50.7,47.9,29.72,NW,323,2.2,3.5,90,0.01,BKN,,0.02,105.0,WeatherDisplay:10.37,2013-05-26 06:22:00,
2013-05-26 08:27:00,50.8,48.0,29.72,NNW,333,1.4,3.5,90,0.01,BKN,,0.02,107.0,WeatherDisplay:10.37,2013-05-26 06:27:00,
2013-05-26 08:32:00,50.9,48.1,29.72,NNW,346,0.6,3.5,90,0.01,BKN,,0.02,93.0,WeatherDisplay:10.37,2013-05-26 06:32:00,
2013-05-26 08:37:00,50.9,48.1,29.72,North,351,0.0,3.5,90,0.01,BKN,,0.02,88.0,WeatherDisplay:10.37,2013-05-26 06:37:00,
2013-05-26 08:42:00,50.9,48.1,29.71,North,351,0.4,2.3,90,0.01,BKN,,0.02,102.0,WeatherDisplay:10.37,2013-05-26 06:42:00,
2013-05-26 08:47:00,51.0,48.2,29.71,NNW,338,0.3,2.3,90,0.01,BKN,,0.02,116.0,WeatherDisplay:10.37,2013-05-26 06:47:00,
2013-05-26 08:52:00,51.1,48.3,29.71,NNW,337,0.0,0.0,90,0.01,BKN,,0.02,125.0,WeatherDisplay:10.37,2013-05-26 06:52:00,
2013-05-26 08:57:00,51.2,48.4,29.71,NW,321,0.1,1.2,90,0.00,BKN,,0.02,139.0,WeatherDisplay:10.37,2013-05-26 06:57:00,
2013-05-26 09:02:00,51.3,48.5,29.71,NW,321,0.2,2.3,90,0.00,BKN,,0.02,158.0,WeatherDisplay:10.37,2013-05-26 07:02:00,
2013-05-26 09:07:00,51.4,48.6,29.71,NW,321,0.7,2.3,90,0.00,BKN,,0.02,176.0,WeatherDisplay:10.37,2013-05-26 07:07:00,
2013-05-26 09:12:00,51.5,48.7,29.71,NW,321,0.0,1.2,90,0.00,BKN,,0.02,176.0,WeatherDisplay:10.37,2013-05-26 07:12:00,
2013-05-26 09:17:00,51.6,48.8,29.71,NW,321,0.0,1.2,90,0.00,BKN,,0.02,178.0,WeatherDisplay:10.37,2013-05-26 07:17:00,
2013-05-26 09:22:00,52.1,49.3,29.71,NNW,333,0.7,2.3,90,0.00,BKN,,0.02,199.0,WeatherDisplay:10.37,2013-05-26 07:22:00,
2013-05-26 09:27:00,52.2,49.4,29.71,NNW,333,0.9,2.3,90,0.00,BKN,,0.02,202.0,WeatherDisplay:10.37,2013-05-26 07:27:00,
2013-05-26 09:32:00,52.4,49.3,29.71,NNW,344,1.5,3.5,89,0.00,BKN,,0.02,183.0,WeatherDisplay:10.37,2013-05-26 07:32:00,
2013-05-26 09:37:00,52.5,49.4,29.70,NNW,342,0.0,1.2,89,0.00,BKN,,0.02,229.0,WeatherDisplay:10.37,2013-05-26 07:37:00,
2013-05-26 09:42:00,52.9,50.0,29.70,WNW,298,1.2,5.0,90,0.00,BKN,,0.02,267.0,WeatherDisplay:10.37,2013-05-26 07:42:00,
2013-05-26 09:47:00,53.1,50.2,29.70,NW,313,2.7,6.0,90,0.00,BKN,,0.02,213.0,WeatherDisplay:10.37,2013-05-26 07:47:00,
2013-05-26 09:52:00,53.1,49.9,29.70,North,355,1.8,4.6,89,0.00,BKN,,0.02,156.0,WeatherDisplay:10.37,2013-05-26 07:52:00,
2013-05-26 09:57:00,53.1,49.6,29.71,NNW,331,0.8,4.6,88,0.00,BKN,,0.02,137.0,WeatherDisplay:10.37,2013-05-26 07:57:00,
2013-05-26 10:02:00,53.1,49.6,29.70,NW,316,0.8,3.5,88,0.00,BKN,,0.02,137.0,WeatherDisplay:10.37,2013-05-26 08:02:00,
2013-05-26 10:07:00,53.1,49.3,29.70,WNW,282,0.9,3.0,87,0.00,BKN,,0.02,156.0,WeatherDisplay:10.37,2013-05-26 08:07:00,
2013-05-26 10:12:00,53.1,49.3,29.71,NNW,348,1.6,5.0,87,0.00,BKN,,0.02,178.0,WeatherDisplay:10.37,2013-05-26 08:12:00,
2013-05-26 10:17:00,53.2,49.4,29.71,North,360,0.0,2.3,87,0.00,BKN,,0.02,190.0,WeatherDisplay:10.37,2013-05-26 08:17:00,
2013-05-26 10:22:00,53.2,49.4,29.71,NW,316,1.4,3.5,87,0.00,BKN,,0.02,206.0,WeatherDisplay:10.37,2013-05-26 08:22:00,
2013-05-26 10:27:00,53.3,49.2,29.71,NW,319,2.9,4.0,86,0.00,BKN,,0.02,221.0,WeatherDisplay:10.37,2013-05-26 08:27:00,
2013-05-26 10:32:00,53.5,49.4,29.70,NW,311,0.3,3.5,86,0.00,BKN,,0.02,241.0,WeatherDisplay:10.37,2013-05-26 08:32:00,
2013-05-26 10:37:00,53.8,49.7,29.70,NNW,327,3.5,5.0,86,0.00,BKN,,0.02,232.0,WeatherDisplay:10.37,2013-05-26 08:37:00,
2013-05-26 10:42:00,54.0,49.6,29.71,WNW,292,4.3,6.0,85,0.00,BKN,,0.02,216.0,WeatherDisplay:10.37,2013-05-26 08:42:00,
2013-05-26 10:47:00,54.1,49.4,29.71,WNW,286,1.6,3.5,84,0.00,BKN,,0.02,200.0,WeatherDisplay:10.37,2013-05-26 08:47:00,
2013-05-26 10:52:00,54.4,50.0,29.71,WNW,286,0.0,1.2,85,0.00,BKN,,0.02,195.0,WeatherDisplay:10.37,2013-05-26 08:52:00,
2013-05-26 10:57:00,54.5,49.4,29.71,West,279,0.0,3.5,83,0.00,BKN,,0.02,188.0,WeatherDisplay:10.37,2013-05-26 08:57:00,
2013-05-26 11:02:00,54.5,49.1,29.71,NW,309,0.2,1.2,82,0.00,BKN,,0.02,204.0,WeatherDisplay:10.37,2013-05-26 09:02:00,
2013-05-26 11:07:00,54.9,50.5,29.71,WSW,241,1.7,4.0,85,0.00,BKN,,0.02,241.0,WeatherDisplay:10.37,2013-05-26 09:07:00,
2013-05-26 11:12:00,55.3,50.9,29.70,WNW,286,2.1,4.0,85,0.00,BKN,,0.02,257.0,WeatherDisplay:10.37,2013-05-26 09:12:00,
2013-05-26 11:17:00,55.6,50.2,29.71,West,265,3.6,5.8,82,0.00,BKN,,0.02,265.0,WeatherDisplay:10.37,2013-05-26 09:17:00,
2013-05-26 11:22:00,55.9,50.2,29.71,West,277,1.2,3.5,81,0.00,BKN,,0.02,260.0,WeatherDisplay:10.37,2013-05-26 09:22:00,
2013-05-26 11:27:00,56.3,50.9,29.71,WSW,242,0.5,2.3,82,0.00,BKN,,0.02,250.0,WeatherDisplay:10.37,2013-05-26 09:27:00,
2013-05-26 11:32:00,56.7,51.3,29.71,WSW,257,0.2,3.5,82,0.00,BKN,,0.02,241.0,WeatherDisplay:10.37,2013-05-26 09:32:00,
2013-05-26 11:37:00,56.9,51.5,29.71,WSW,245,2.8,4.0,82,0.00,BKN,,0.02,229.0,WeatherDisplay:10.37,2013-05-26 09:37:00,
2013-05-26 11:42:00,57.0,50.9,29.71,NNW,336,0.6,2.3,80,0.00,BKN,,0.02,236.0,WeatherDisplay:10.37,2013-05-26 09:42:00,
2013-05-26 11:47:00,57.1,50.6,29.71,WNW,289,0.5,3.5,79,0.00,BKN,,0.02,279.0,WeatherDisplay:10.37,2013-05-26 09:47:00,
2013-05-26 11:52:00,57.3,50.5,29.70,West,263,1.7,5.8,78,0.00,BKN,,0.02,341.0,WeatherDisplay:10.37,2013-05-26 09:52:00,
2013-05-26 11:57:00,57.6,50.4,29.70,WNW,291,0.4,3.5,77,0.00,BKN,,0.02,392.0,WeatherDisplay:10.37,2013-05-26 09:57:00,
2013-05-26 12:02:00,58.1,51.3,29.70,West,271,4.5,7.0,78,0.00,SCT,,0.02,559.0,WeatherDisplay:10.37,2013-05-26 10:02:00,
2013-05-26 12:07:00,58.8,50.5,29.69,NW,321,3.1,5.0,74,0.00,SCT,,0.02,865.0,WeatherDisplay:10.37,2013-05-26 10:07:00,
2013-05-26 12:12:00,59.3,50.3,29.69,NNW,335,1.6,5.0,72,0.00,CLR,,0.02,919.0,WeatherDisplay:10.37,2013-05-26 10:12:00,
2013-05-26 12:17:00,59.9,50.1,29.69,WNW,303,1.2,5.8,70,0.00,CLR,,0.02,937.0,WeatherDisplay:10.37,2013-05-26 10:17:00,
2013-05-26 12:22:00,60.5,49.5,29.69,NW,324,3.9,10.4,67,0.00,CLR,,0.02,997.0,WeatherDisplay:10.37,2013-05-26 10:22:00,
2013-05-26 12:27:00,60.9,49.5,29.69,NNW,333,5.1,9.2,66,0.00,CLR,,0.02,316.0,WeatherDisplay:10.37,2013-05-26 10:27:00,
2013-05-26 12:32:00,61.1,48.0,29.69,WNW,302,3.5,11.5,62,0.00,FEW,,0.02,313.0,WeatherDisplay:10.37,2013-05-26 10:32:00,
2013-05-26 12:37:00,60.9,47.4,29.70,NW,304,4.4,11.5,61,0.00,BKN,,0.02,357.0,WeatherDisplay:10.37,2013-05-26 10:37:00,
2013-05-26 12:42:00,60.7,47.2,29.69,NW,306,3.4,7.0,61,0.00,BKN,,0.02,373.0,WeatherDisplay:10.37,2013-05-26 10:42:00,
2013-05-26 12:47:00,60.8,46.8,29.70,West,269,5.5,10.4,60,0.00,BKN,,0.02,329.0,WeatherDisplay:10.37,2013-05-26 10:47:00,
2013-05-26 12:52:00,60.5,45.6,29.70,NW,322,5.2,10.4,58,0.00,BKN,,0.02,383.0,WeatherDisplay:10.37,2013-05-26 10:52:00,
2013-05-26 12:57:00,60.4,46.0,29.70,NNW,348,3.1,8.0,59,0.00,BKN,,0.02,406.0,WeatherDisplay:10.37,2013-05-26 10:57:00,
2013-05-26 13:02:00,60.5,46.1,29.70,NW,313,3.3,9.2,59,0.00,BKN,,0.02,396.0,WeatherDisplay:10.37,2013-05-26 11:02:00,
2013-05-26 13:07:00,60.6,46.2,29.69,NNW,336,3.4,8.1,59,0.00,BKN,,0.02,408.0,WeatherDisplay:10.37,2013-05-26 11:07:00,
2013-05-26 13:12:00,60.7,46.3,29.69,NW,320,3.6,8.1,59,0.00,SCT,,0.02,446.0,WeatherDisplay:10.37,2013-05-26 11:12:00,
2013-05-26 13:17:00,61.0,45.2,29.70,North,5,3.1,9.2,56,0.00,SCT,,0.02,483.0,WeatherDisplay:10.37,2013-05-26 11:17:00,
2013-05-26 13:22:00,61.2,45.4,29.69,WNW,286,3.5,6.0,56,0.00,SCT,,0.02,439.0,WeatherDisplay:10.37,2013-05-26 11:22:00,
2013-05-26 13:27:00,61.3,45.9,29.69,NNE,13,1.9,6.9,57,0.00,SCT,,0.02,295.0,WeatherDisplay:10.37,2013-05-26 11:27:00,
2013-05-26 13:32:00,61.4,45.6,29.69,North,355,1.7,6.0,56,0.00,BKN,,0.02,134.0,WeatherDisplay:10.37,2013-05-26 11:32:00,
2013-05-26 13:37:00,61.4,46.5,29.70,ENE,75,2.7,6.9,58,0.00,BKN,,0.02,97.0,WeatherDisplay:10.37,2013-05-26 11:37:00,
2013-05-26 13:42:00,60.7,48.0,29.70,SE,126,6.1,11.5,63,0.00,BKN,,0.02,111.0,WeatherDisplay:10.37,2013-05-26 11:42:00,
2013-05-26 13:47:00,59.6,48.2,29.70,East,94,2.6,5.0,66,0.00,BKN,,0.02,121.0,WeatherDisplay:10.37,2013-05-26 11:47:00,
2013-05-26 13:52:00,58.7,47.4,29.70,ESE,105,4.0,9.2,66,0.00,BKN,,0.02,162.0,WeatherDisplay:10.37,2013-05-26 11:52:00,
2013-05-26 13:57:00,58.0,47.1,29.70,East,85,5.0,8.1,67,0.00,BKN,,0.02,172.0,WeatherDisplay:10.37,2013-05-26 11:57:00,
2013-05-26 14:02:00,57.5,47.4,29.70,SE,134,2.9,8.1,69,0.00,BKN,,0.02,155.0,WeatherDisplay:10.37,2013-05-26 12:02:00,
2013-05-26 14:07:00,57.2,47.1,29.70,East,96,4.7,8.0,69,0.00,BKN,,0.02,162.0,WeatherDisplay:10.37,2013-05-26 12:07:00,
2013-05-26 14:12:00,57.1,47.4,29.70,East,97,2.7,6.0,70,0.00,BKN,,0.02,70.0,WeatherDisplay:10.37,2013-05-26 12:12:00,
2013-05-26 14:17:00,57.0,47.3,29.70,East,86,0.0,2.3,70,0.01,RA,,0.02,42.0,WeatherDisplay:10.37,2013-05-26 12:17:00,
2013-05-26 14:22:00,57.0,48.1,29.70,East,86,0.0,0.0,72,0.02,RA,,0.04,51.0,WeatherDisplay:10.37,2013-05-26 12:22:00,
2013-05-26 14:27:00,56.9,48.7,29.71,East,86,1.6,3.5,74,0.02,RA,,0.04,47.0,WeatherDisplay:10.37,2013-05-26 12:27:00,
2013-05-26 14:32:00,56.5,49.0,29.70,ESE,106,3.3,6.0,76,0.02,RA,,0.04,44.0,WeatherDisplay:10.37,2013-05-26 12:32:00,
2013-05-26 14:37:00,56.1,48.6,29.71,ENE,67,4.2,8.1,76,0.03,RA,,0.05,33.0,WeatherDisplay:10.37,2013-05-26 12:37:00,
2013-05-26 14:42:00,55.5,48.8,29.71,East,94,1.9,5.8,78,0.05,RA,,0.06,33.0,WeatherDisplay:10.37,2013-05-26 12:42:00,
2013-05-26 14:47:00,55.0,48.6,29.72,NE,44,1.7,4.6,79,0.05,RA,,0.06,51.0,WeatherDisplay:10.37,2013-05-26 12:47:00,
2013-05-26 14:52:00,54.6,48.6,29.71,NE,46,0.3,2.3,80,0.05,BKN,,0.06,91.0,WeatherDisplay:10.37,2013-05-26 12:52:00,
2013-05-26 14:57:00,54.3,48.6,29.71,NE,49,1.7,6.9,81,0.05,BKN,,0.06,102.0,WeatherDisplay:10.37,2013-05-26 12:57:00,
2013-05-26 15:02:00,54.1,48.7,29.71,NE,54,1.8,6.0,82,0.05,BKN,,0.06,105.0,WeatherDisplay:10.37,2013-05-26 13:02:00,
2013-05-26 15:07:00,54.0,48.6,29.71,ENE,76,1.2,4.0,82,0.05,BKN,,0.06,104.0,WeatherDisplay:10.37,2013-05-26 13:07:00,
2013-05-26 15:12:00,53.8,48.8,29.71,ENE,71,0.1,2.3,83,0.05,BKN,,0.06,63.0,WeatherDisplay:10.37,2013-05-26 13:12:00,
2013-05-26 15:18:00,53.6,48.6,29.71,ENE,78,0.0,3.5,83,0.04,BKN,,0.06,51.0,WeatherDisplay:10.37,2013-05-26 13:18:00,
2013-05-26 15:23:00,53.5,48.5,29.71,ENE,78,0.1,1.0,83,0.02,BKN,,0.06,53.0,WeatherDisplay:10.37,2013-05-26 13:23:00,
2013-05-26 15:28:00,53.4,48.4,29.71,ENE,78,0.0,0.0,83,0.02,BKN,,0.06,53.0,WeatherDisplay:10.37,2013-05-26 13:28:00,
2013-05-26 15:33:00,53.3,48.3,29.71,ENE,78,0.0,2.3,83,0.02,BKN,,0.06,40.0,WeatherDisplay:10.37,2013-05-26 13:33:00,
2013-05-26 15:38:00,53.2,48.2,29.70,ENE,78,0.1,1.2,83,0.02,BKN,,0.06,40.0,WeatherDisplay:10.37,2013-05-26 13:38:00,
2013-05-26 15:43:00,53.1,48.4,29.70,ENE,78,0.0,1.2,84,0.00,BKN,,0.06,65.0,WeatherDisplay:10.37,2013-05-26 13:43:00,
2013-05-26 15:48:00,53.1,48.4,29.71,ENE,78,0.0,1.2,84,0.00,BKN,,0.06,104.0,WeatherDisplay:10.37,2013-05-26 13:48:00,
2013-05-26 15:53:00,53.1,48.4,29.70,East,100,1.1,5.0,84,0.00,BKN,,0.06,130.0,WeatherDisplay:10.37,2013-05-26 13:53:00,
2013-05-26 15:58:00,53.1,48.4,29.71,ESE,107,0.0,0.0,84,0.00,BKN,,0.06,158.0,WeatherDisplay:10.37,2013-05-26 13:58:00,
2013-05-26 16:03:00,53.1,48.4,29.71,ESE,107,0.2,1.2,84,0.00,BKN,,0.06,100.0,WeatherDisplay:10.37,2013-05-26 14:03:00,
2013-05-26 16:08:00,53.3,48.9,29.71,ESE,107,0.1,1.2,85,0.00,BKN,,0.06,118.0,WeatherDisplay:10.37,2013-05-26 14:08:00,
2013-05-26 16:13:00,53.4,49.0,29.71,ESE,107,0.5,2.3,85,0.00,BKN,,0.06,176.0,WeatherDisplay:10.37,2013-05-26 14:13:00,
2013-05-26 16:18:00,53.7,49.3,29.71,ESE,107,0.0,0.0,85,0.00,BKN,,0.06,216.0,WeatherDisplay:10.37,2013-05-26 14:18:00,
2013-05-26 16:23:00,54.0,49.3,29.71,ESE,107,0.0,1.2,84,0.00,BKN,,0.06,225.0,WeatherDisplay:10.37,2013-05-26 14:23:00,
2013-05-26 16:28:00,54.4,49.7,29.71,ESE,107,0.0,0.0,84,0.00,BKN,,0.06,202.0,WeatherDisplay:10.37,2013-05-26 14:28:00,
2013-05-26 16:33:00,54.5,49.1,29.71,SE,124,0.2,3.5,82,0.00,BKN,,0.06,125.0,WeatherDisplay:10.37,2013-05-26 14:33:00,
2013-05-26 16:38:00,54.5,48.5,29.71,SE,127,0.0,0.0,80,0.00,BKN,,0.06,118.0,WeatherDisplay:10.37,2013-05-26 14:38:00,
2013-05-26 16:43:00,54.6,48.9,29.71,SE,127,0.3,2.0,81,0.00,BKN,,0.06,151.0,WeatherDisplay:10.37,2013-05-26 14:43:00,
2013-05-26 16:48:00,54.7,48.6,29.71,SE,128,0.0,3.5,80,0.00,BKN,,0.06,165.0,WeatherDisplay:10.37,2013-05-26 14:48:00,
2013-05-26 16:53:00,54.8,48.7,29.71,SE,127,0.0,1.2,80,0.00,BKN,,0.06,139.0,WeatherDisplay:10.37,2013-05-26 14:53:00,
2013-05-26 16:58:00,54.9,48.2,29.71,SE,127,0.0,0.0,78,0.00,BKN,,0.06,130.0,WeatherDisplay:10.37,2013-05-26 14:58:00,
2013-05-26 17:03:00,55.0,47.9,29.71,SE,127,0.0,0.0,77,0.00,BKN,,0.06,100.0,WeatherDisplay:10.37,2013-05-26 15:03:00,
2013-05-26 17:08:00,55.2,49.1,29.71,South,171,0.4,2.3,80,0.00,BKN,,0.06,104.0,WeatherDisplay:10.37,2013-05-26 15:08:00,
2013-05-26 17:13:00,55.4,49.7,29.71,SW,215,0.8,3.5,81,0.00,BKN,,0.06,132.0,WeatherDisplay:10.37,2013-05-26 15:13:00,
2013-05-26 17:18:00,55.5,50.4,29.71,SW,215,0.3,1.2,83,0.00,BKN,,0.06,137.0,WeatherDisplay:10.37,2013-05-26 15:18:00,
2013-05-26 17:23:00,55.6,50.5,29.71,SW,215,0.0,0.0,83,0.00,BKN,,0.06,111.0,WeatherDisplay:10.37,2013-05-26 15:23:00,
2013-05-26 17:28:00,55.8,51.0,29.71,SW,215,0.3,2.3,84,0.00,BKN,,0.06,105.0,WeatherDisplay:10.37,2013-05-26 15:28:00,
2013-05-26 17:33:00,55.7,50.6,29.71,South,190,0.8,3.5,83,0.00,BKN,,0.06,134.0,WeatherDisplay:10.37,2013-05-26 15:33:00,
2013-05-26 17:38:00,55.7,50.6,29.71,South,189,0.3,3.5,83,0.00,BKN,,0.06,127.0,WeatherDisplay:10.37,2013-05-26 15:38:00,
2013-05-26 17:43:00,55.7,50.6,29.71,SSW,209,0.5,2.3,83,0.00,BKN,,0.06,128.0,WeatherDisplay:10.37,2013-05-26 15:43:00,
2013-05-26 17:48:00,55.7,50.6,29.71,SSW,206,0.1,1.0,83,0.00,BKN,,0.06,123.0,WeatherDisplay:10.37,2013-05-26 15:48:00,
2013-05-26 17:53:00,55.7,50.3,29.71,SSW,213,1.5,3.5,82,0.00,BKN,,0.06,111.0,WeatherDisplay:10.37,2013-05-26 15:53:00,
2013-05-26 17:58:00,55.6,50.5,29.71,SSW,213,0.8,4.6,83,0.00,BKN,,0.06,102.0,WeatherDisplay:10.37,2013-05-26 15:58:00,
2013-05-26 18:03:00,55.6,50.2,29.71,South,173,0.6,4.6,82,0.00,BKN,,0.06,95.0,WeatherDisplay:10.37,2013-05-26 16:03:00,
2013-05-26 18:08:00,55.6,50.2,29.71,SW,225,0.0,1.2,82,0.00,BKN,,0.06,90.0,WeatherDisplay:10.37,2013-05-26 16:08:00,
2013-05-26 18:13:00,55.6,50.2,29.71,SW,219,0.4,3.5,82,0.00,BKN,,0.06,84.0,WeatherDisplay:10.37,2013-05-26 16:13:00,
2013-05-26 18:18:00,55.6,50.5,29.71,SW,215,0.6,2.3,83,0.00,BKN,,0.06,83.0,WeatherDisplay:10.37,2013-05-26 16:18:00,
2013-05-26 18:23:00,55.6,50.5,29.71,SW,215,0.1,1.2,83,0.00,BKN,,0.06,84.0,WeatherDisplay:10.37,2013-05-26 16:23:00,
2013-05-26 18:28:00,55.6,50.5,29.71,South,174,1.9,4.0,83,0.00,BKN,,0.06,86.0,WeatherDisplay:10.37,2013-05-26 16:28:00,
2013-05-26 18:33:00,55.5,50.7,29.71,South,186,0.5,3.0,84,0.00,BKN,,0.06,86.0,WeatherDisplay:10.37,2013-05-26 16:33:00,
2013-05-26 18:38:00,55.5,50.4,29.71,South,176,0.8,4.6,83,0.00,BKN,,0.06,81.0,WeatherDisplay:10.37,2013-05-26 16:38:00,
2013-05-26 18:43:00,55.4,50.3,29.71,South,182,0.4,3.5,83,0.00,BKN,,0.06,76.0,WeatherDisplay:10.37,2013-05-26 16:43:00,
2013-05-26 18:48:00,55.3,50.2,29.71,South,184,0.0,2.3,83,0.00,BKN,,0.06,69.0,WeatherDisplay:10.37,2013-05-26 16:48:00,
2013-05-26 18:53:00,55.3,50.5,29.71,South,184,0.7,2.3,84,0.00,BKN,,0.06,67.0,WeatherDisplay:10.37,2013-05-26 16:53:00,
2013-05-26 18:58:00,55.3,50.5,29.71,South,184,0.4,1.2,84,0.00,BKN,,0.06,63.0,WeatherDisplay:10.37,2013-05-26 16:58:00,
2013-05-26 19:03:00,55.2,50.4,29.71,South,184,0.2,1.2,84,0.00,BKN,,0.06,63.0,WeatherDisplay:10.37,2013-05-26 17:03:00,
2013-05-26 19:08:00,55.2,50.1,29.71,South,184,0.1,1.2,83,0.00,BKN,,0.06,62.0,WeatherDisplay:10.37,2013-05-26 17:08:00,
2013-05-26 19:13:00,55.1,50.0,29.71,South,182,0.6,3.5,83,0.00,SCT,,0.06,60.0,WeatherDisplay:10.37,2013-05-26 17:13:00,
2013-05-26 19:18:00,54.9,49.8,29.71,SSE,148,2.1,4.0,83,0.00,SCT,,0.06,60.0,WeatherDisplay:10.37,2013-05-26 17:18:00,
2013-05-26 19:23:00,54.8,49.7,29.71,SSE,163,1.5,5.8,83,0.00,SCT,,0.06,47.0,WeatherDisplay:10.37,2013-05-26 17:23:00,
2013-05-26 19:28:00,54.7,49.6,29.71,SSE,153,1.7,3.5,83,0.00,BKN,,0.06,42.0,WeatherDisplay:10.37,2013-05-26 17:28:00,
2013-05-26 19:33:00,54.6,49.5,29.71,SSE,156,0.9,2.3,83,0.00,BKN,,0.06,62.0,WeatherDisplay:10.37,2013-05-26 17:33:00,
2013-05-26 19:38:00,54.6,49.5,29.71,SSE,159,0.0,3.5,83,0.00,BKN,,0.06,60.0,WeatherDisplay:10.37,2013-05-26 17:38:00,
2013-05-26 19:43:00,54.6,49.9,29.71,SSE,159,0.0,1.2,84,0.00,BKN,,0.06,56.0,WeatherDisplay:10.37,2013-05-26 17:43:00,
2013-05-26 19:48:00,54.6,49.9,29.71,SSE,159,0.0,0.0,84,0.00,BKN,,0.06,58.0,WeatherDisplay:10.37,2013-05-26 17:48:00,
2013-05-26 19:53:00,54.6,49.9,29.71,SSE,159,0.3,1.2,84,0.00,BKN,,0.06,49.0,WeatherDisplay:10.37,2013-05-26 17:53:00,
2013-05-26 19:58:00,54.6,49.9,29.72,SSE,159,0.0,1.2,84,0.00,BKN,,0.06,37.0,WeatherDisplay:10.37,2013-05-26 17:58:00,
2013-05-26 20:03:00,54.6,49.5,29.72,WNW,302,3.0,7.0,83,0.00,BKN,,0.06,30.0,WeatherDisplay:10.37,2013-05-26 18:03:00,
2013-05-26 20:08:00,54.4,48.0,29.71,WNW,296,4.5,11.5,79,0.00,BKN,,0.06,25.0,WeatherDisplay:10.37,2013-05-26 18:08:00,
2013-05-26 20:13:00,54.5,46.0,29.72,WNW,292,4.0,10.4,73,0.00,BKN,,0.06,21.0,WeatherDisplay:10.37,2013-05-26 18:13:00,
2013-05-26 20:18:00,54.7,44.7,29.72,West,271,3.8,10.4,69,0.00,BKN,,0.06,18.0,WeatherDisplay:10.37,2013-05-26 18:18:00,
2013-05-26 20:23:00,55.1,43.5,29.72,WNW,294,4.6,10.4,65,0.00,BKN,,0.06,14.0,WeatherDisplay:10.37,2013-05-26 18:23:00,
2013-05-26 20:28:00,55.5,43.5,29.72,WNW,298,3.9,10.4,64,0.00,BKN,,0.06,9.0,WeatherDisplay:10.37,2013-05-26 18:28:00,
2013-05-26 20:33:00,55.7,43.3,29.72,WNW,292,5.3,10.4,63,0.00,BKN,,0.06,5.0,WeatherDisplay:10.37,2013-05-26 18:33:00,
2013-05-26 20:38:00,55.9,43.1,29.72,NNW,344,4.5,8.0,62,0.00,BKN,,0.06,0.0,WeatherDisplay:10.37,2013-05-26 18:38:00,
2013-05-26 20:43:00,55.9,42.6,29.72,NNE,15,3.6,7.0,61,0.00,BKN,,0.06,0.0,WeatherDisplay:10.37,2013-05-26 18:43:00,
2013-05-26 20:48:00,56.0,42.7,29.72,WNW,302,2.4,6.9,61,0.00,BKN,,0.06,0.0,WeatherDisplay:10.37,2013-05-26 18:48:00,
2013-05-26 20:53:00,55.9,42.6,29.73,WNW,301,1.1,4.6,61,0.00,BKN,,0.06,0.0,WeatherDisplay:10.37,2013-05-26 18:53:00,
2013-05-26 20:58:00,55.8,42.5,29.73,NNW,327,3.9,9.2,61,0.00,BKN,,0.06,0.0,WeatherDisplay:10.37,2013-05-26 18:58:00,
2013-05-26 21:03:00,55.7,42.0,29.73,WNW,290,4.0,9.2,60,0.00,BKN,,0.06,0.0,WeatherDisplay:10.37,2013-05-26 19:03:00,
2013-05-26 21:08:00,55.7,42.0,29.73,WNW,288,1.8,8.1,60,0.00,BKN,,0.06,0.0,WeatherDisplay:10.37,2013-05-26 19:08:00,
2013-05-26 21:13:00,55.6,41.9,29.74,WNW,291,1.9,12.7,60,0.00,BKN,,0.06,0.0,WeatherDisplay:10.37,2013-05-26 19:13:00,
2013-05-26 21:18:00,55.6,42.4,29.74,West,281,3.3,7.0,61,0.00,BKN,,0.06,0.0,WeatherDisplay:10.37,2013-05-26 19:18:00,
2013-05-26 21:23:00,55.5,42.3,29.74,NW,325,3.3,5.8,61,0.00,BKN,,0.06,0.0,WeatherDisplay:10.37,2013-05-26 19:23:00,
2013-05-26 21:28:00,55.4,42.2,29.74,WSW,250,3.9,7.0,61,0.00,BKN,,0.06,0.0,WeatherDisplay:10.37,2013-05-26 19:28:00,
2013-05-26 21:33:00,55.3,42.1,29.74,WNW,299,2.6,6.9,61,0.00,BKN,,0.06,0.0,WeatherDisplay:10.37,2013-05-26 19:33:00,
2013-05-26 21:38:00,55.2,42.0,29.74,NNW,327,2.2,5.0,61,0.00,BKN,,0.06,0.0,WeatherDisplay:10.37,2013-05-26 19:38:00,
2013-05-26 21:43:00,55.1,41.9,29.74,NNW,346,1.5,5.8,61,0.00,BKN,,0.06,0.0,WeatherDisplay:10.37,2013-05-26 19:43:00,
2013-05-26 21:48:00,54.9,41.7,29.74,NNW,336,1.8,4.6,61,0.00,BKN,,0.06,0.0,WeatherDisplay:10.37,2013-05-26 19:48:00,
2013-05-26 21:53:00,54.7,41.9,29.75,NNW,336,3.1,7.0,62,0.00,BKN,,0.06,0.0,WeatherDisplay:10.37,2013-05-26 19:53:00,
2013-05-26 21:58:00,54.5,41.7,29.74,NNW,342,1.5,5.8,62,0.00,BKN,,0.06,0.0,WeatherDisplay:10.37,2013-05-26 19:58:00,
2013-05-26 22:03:00,54.3,42.0,29.75,NW,322,2.5,6.0,63,0.00,BKN,,0.06,0.0,WeatherDisplay:10.37,2013-05-26 20:03:00,
2013-05-26 22:08:00,54.2,41.9,29.75,NNW,342,3.0,8.1,63,0.00,BKN,,0.06,0.0,WeatherDisplay:10.37,2013-05-26 20:08:00,
2013-05-26 22:13:00,53.9,42.0,29.75,NW,307,3.7,9.2,64,0.00,BKN,,0.06,0.0,WeatherDisplay:10.37,2013-05-26 20:13:00,
2013-05-26 22:18:00,53.7,41.8,29.74,North,349,4.7,9.2,64,0.00,BKN,,0.06,0.0,WeatherDisplay:10.37,2013-05-26 20:18:00,
2013-05-26 22:23:00,53.6,41.7,29.75,NW,324,1.9,9.2,64,0.00,BKN,,0.06,0.0,WeatherDisplay:10.37,2013-05-26 20:23:00,
2013-05-26 22:28:00,53.4,41.5,29.75,NNW,330,1.8,6.9,64,0.00,BKN,,0.06,0.0,WeatherDisplay:10.37,2013-05-26 20:28:00,
2013-05-26 22:33:00,53.3,41.4,29.75,NW,325,4.5,11.5,64,0.00,BKN,,0.06,0.0,WeatherDisplay:10.37,2013-05-26 20:33:00,
2013-05-26 22:38:00,53.2,41.3,29.75,North,355,4.0,10.0,64,0.00,BKN,,0.06,0.0,WeatherDisplay:10.37,2013-05-26 20:38:00,
2013-05-26 22:43:00,53.1,41.2,29.75,NNW,329,4.4,10.4,64,0.00,BKN,,0.06,0.0,WeatherDisplay:10.37,2013-05-26 20:43:00,
2013-05-26 22:48:00,53.0,41.1,29.75,NW,321,3.3,7.0,64,0.00,BKN,,0.06,0.0,WeatherDisplay:10.37,2013-05-26 20:48:00,
2013-05-26 22:53:00,52.9,41.0,29.75,WNW,300,4.0,9.0,64,0.00,BKN,,0.06,0.0,WeatherDisplay:10.37,2013-05-26 20:53:00,
2013-05-26 22:58:00,52.7,40.9,29.75,NW,305,3.7,9.0,64,0.00,BKN,,0.06,0.0,WeatherDisplay:10.37,2013-05-26 20:58:00,
2013-05-26 23:03:00,52.5,41.1,29.76,WNW,284,2.2,8.1,65,0.00,BKN,,0.06,0.0,WeatherDisplay:10.37,2013-05-26 21:03:00,
2013-05-26 23:08:00,52.4,41.0,29.76,NNW,341,3.7,8.1,65,0.00,BKN,,0.06,0.0,WeatherDisplay:10.37,2013-05-26 21:08:00,
2013-05-26 23:13:00,52.2,41.2,29.76,NNW,327,0.9,3.0,66,0.00,BKN,,0.06,0.0,WeatherDisplay:10.37,2013-05-26 21:13:00,
2013-05-26 23:18:00,52.0,41.4,29.76,NW,324,2.5,4.0,67,0.00,BKN,,0.06,0.0,WeatherDisplay:10.37,2013-05-26 21:18:00,
2013-05-26 23:23:00,51.8,41.2,29.76,WNW,290,0.6,4.6,67,0.00,BKN,,0.06,0.0,WeatherDisplay:10.37,2013-05-26 21:23:00,
2013-05-26 23:28:00,51.5,41.3,29.76,WNW,283,1.0,4.6,68,0.00,BKN,,0.06,0.0,WeatherDisplay:10.37,2013-05-26 21:28:00,
2013-05-26 23:33:00,51.3,41.1,29.76,West,281,0.7,2.3,68,0.00,BKN,,0.06,0.0,WeatherDisplay:10.37,2013-05-26 21:33:00,
2013-05-26 23:38:00,50.9,41.1,29.76,West,265,3.8,6.0,69,0.00,BKN,,0.06,0.0,WeatherDisplay:10.37,2013-05-26 21:38:00,
2013-05-26 23:43:00,50.6,40.8,29.77,West,265,3.3,9.2,69,0.00,BKN,,0.06,0.0,WeatherDisplay:10.37,2013-05-26 21:43:00,
2013-05-26 23:48:00,50.5,41.1,29.77,West,265,1.1,3.5,70,0.00,BKN,,0.06,0.0,WeatherDisplay:10.37,2013-05-26 21:48:00,
2013-05-26 23:53:00,50.2,40.8,29.77,West,263,2.2,6.9,70,0.00,BKN,,0.06,0.0,WeatherDisplay:10.37,2013-05-26 21:53:00,
2013-05-26 23:58:00,50.1,41.1,29.77,West,269,2.0,6.0,71,0.00,BKN,,0.06,0.0,WeatherDisplay:10.37,2013-05-26 21:58:00,